Location: Newark
(40.9833°N, 0.0333°W)
Time: 03:33:08
(UTC+00:00)

Transit 2A Rocket - Pass Details

Date: 29 October 2020
Orbit: 588 x 914 km, 66.7° (Epoch: 26 November)

Event Time Altitude Azimuth Distance (km) Brightness Sun altitude
Rises 11:48:00 0° 279° (W) 3,534 8.4 35.3°
Maximum altitude 11:54:19 10° 328° (NNW) 2,541 7.4 35.3°
Drops below altitude 10° 11:54:23 10° 328° (NNW) 2,540 7.4 35.3°
Sets 12:00:26 0° 17° (NNE) 3,382 7.8 35.2°
